Hyannis, MA

8:44 AM EDT on July 22, 2017 (GMT -0400)
Barnstable Municipal-Boardman-Polando Field

Weather History for KHYA - June, 2013

Change the Weather History Date:

Wednesday, June 26, 2013

  Actual Average Record
Temperature  
Mean Temperature 78 °F -  
Max Temperature 86 °F 72 °F 94 °F (1949)
Min Temperature 71 °F 58 °F 45 °F (1979)
Cooling Degree Days 14    
Growing Degree Days 28 (Base 50)    
Moisture  
Dew Point 69 °F    
Average Humidity 76    
Maximum Humidity 94    
Minimum Humidity 60    
Precipitation  
Precipitation 0.00 in - - ()
Sea Level Pressure  
Sea Level Pressure 29.77 in    
Wind  
Wind Speed 8 mph (WSW)    
Max Wind Speed 17 mph    
Max Gust Speed 25 mph    
Visibility 8 miles    
Events Rain    
Averages and records for this station are not official NWS values.
T = Trace of Precipitation, MM = Missing Value Source: NWS Daily Summary

Daily Weather History Graph

Daily Weather History Graph

Search for Another Location

Airport or City:

Trip Planner

Search our weather history database for the weather conditions in past years. The results will help you decide how hot, cold, wet, or windy it might be!

Date:

Astronomy

Jun. 26, 2013 Rise Set
Actual Time 5:08 AM EDT 8:19 PM EDT
Civil Twilight 4:34 AM EDT 8:53 PM EDT
Nautical Twilight 3:50 AM EDT 9:37 PM EDT
Astronomical Twilight 2:57 AM EDT 10:30 PM EDT
Moon 10:37 PM EDT (6/26) 8:59 AM EDT (6/26)
Length of Visible Light 16h 19m
Length of Day
15h 11m
Waning Gibbous, 85% of the Moon is Illuminated
Jun 26
Waning Gibbous
Jun 30
Last Quarter
Jul 8
New
Jul 15
First Quarter
Jul 22
Full

Hourly Weather History & Observations

Time (EDT) Temp. Heat Index Dew Point Humidity Pressure Visibility Wind Dir Wind Speed Gust Speed Precip Events Conditions
12:56 AM 73.0 °F - 68.0 °F 84% 29.76 in 8.0 mi WSW 10.4 mph - N/A   Overcast
1:56 AM 73.0 °F - 68.0 °F 84% 29.75 in 8.0 mi West 5.8 mph - N/A   Clear
2:56 AM 72.0 °F - 68.0 °F 87% 29.73 in 8.0 mi WSW 5.8 mph - N/A   Clear
3:56 AM 73.0 °F - 68.0 °F 84% 29.73 in 9.0 mi WSW 5.8 mph - N/A   Clear
4:56 AM 72.0 °F - 66.9 °F 84% 29.75 in 9.0 mi SW 5.8 mph - N/A   Clear
5:56 AM 72.0 °F - 68.0 °F 87% 29.76 in 6.0 mi West 5.8 mph - N/A   Clear
6:56 AM 75.9 °F - 68.0 °F 76% 29.75 in 8.0 mi WSW 6.9 mph - N/A   Clear
7:56 AM 78.1 °F - 69.1 °F 74% 29.76 in 9.0 mi WNW 4.6 mph - N/A   Scattered Clouds
8:56 AM 80.1 °F 82.9 °F 69.1 °F 69% 29.77 in 10.0 mi WSW 5.8 mph - N/A   Partly Cloudy
9:56 AM 82.9 °F 85.8 °F 68.0 °F 60% 29.76 in 10.0 mi West 8.1 mph - N/A   Clear
10:56 AM 84.0 °F 89.0 °F 71.1 °F 65% 29.76 in 10.0 mi SSW 9.2 mph - N/A   Clear
11:56 AM 86.0 °F 91.5 °F 71.1 °F 61% 29.76 in 10.0 mi WSW 8.1 mph 16.1 mph N/A   Clear
12:56 PM 84.9 °F 89.4 °F 70.0 °F 61% 29.76 in 10.0 mi SW 11.5 mph - N/A   Mostly Cloudy
1:56 PM 84.0 °F 88.4 °F 70.0 °F 63% 29.75 in 10.0 mi SW 15.0 mph 21.9 mph N/A   Partly Cloudy
2:56 PM 84.9 °F 89.4 °F 70.0 °F 61% 29.75 in 10.0 mi SW 17.3 mph 25.3 mph N/A   Clear
3:56 PM 84.0 °F 87.8 °F 69.1 °F 61% 29.75 in 10.0 mi SW 13.8 mph - N/A   Clear
4:56 PM 82.9 °F 85.8 °F 68.0 °F 60% 29.75 in 10.0 mi West 11.5 mph - N/A   Partly Cloudy
5:56 PM 81.0 °F 84.1 °F 69.1 °F 67% 29.75 in 10.0 mi West 9.2 mph - N/A   Partly Cloudy
6:56 PM 78.1 °F - 70.0 °F 76% 29.77 in 10.0 mi NW 5.8 mph - N/A   Clear
7:56 PM 73.0 °F - 68.0 °F 84% 29.81 in 8.0 mi North 9.2 mph - N/A   Scattered Clouds
8:56 PM 72.0 °F - 69.1 °F 91% 29.81 in 6.0 mi West 3.5 mph - 0.00 in Rain Light Rain
9:56 PM 72.0 °F - 69.1 °F 91% 29.83 in 7.0 mi Calm Calm - 0.00 in   Scattered Clouds
10:56 PM 71.1 °F - 68.0 °F 90% 29.83 in 5.0 mi NNE 3.5 mph - N/A   Partly Cloudy
11:11 PM 71.6 °F - 69.8 °F 94% 29.83 in 4.0 mi Calm Calm - N/A   Mostly Cloudy
11:56 PM 72.0 °F - 69.1 °F 91% 29.84 in 6.0 mi Calm Calm - N/A   Overcast